Location: Mahannah Oil Field
(37.4664°N, 96.6003°W)
Time: 01:53:03
(UTC+00:00)

Tiros 1 despin weight - Pass Details

Date: 26 January 2021
Orbit: 593 x 642 km, 48.2° (Epoch: 25 February)

Event Time Altitude Azimuth Distance (km) Brightness Sun altitude
Rises 18:48:50 0° 218° (SW) 2,908 ? 34.0°
Reaches altitude 10° 18:51:13 10° 213° (SSW) 1,996 ? 34.0°
Maximum altitude 18:55:38 48° 139° (SE) 818 ? 33.9°
Drops below altitude 10° 18:59:59 10° 66° (ENE) 1,976 ? 33.8°
Sets 19:02:20 0° 60° (ENE) 2,874 ? 33.8°
